Project,Study,Ord_Occ,Event_Num,Cast_ID,Date_Time_UTC,Date_Time_PST,Lat_Dec,Lon_Dec,Sta_ID,Line,Sta,Depth,Pressure,PrQ,Temp1,Temp1Q,Temp2,Temp2Q,TempAve,Salt1,Salt1Q,Salt1_Corr,Salt2,Salt2Q,Salt2_Corr,SaltAve_Corr,Ox1,Ox1Q,Ox1_CruiseCorr,Ox1_StaCorr,Ox2,Ox2Q,Ox2_CruiseCorr,Ox2_StaCorr,OxAve_StaCorr,Ox1uM,Ox1uM_CruiseCorr,Ox1uM_StaCorr,Ox2uM,Ox2uM_CruiseCorr,Ox2uM_StaCorr,OxAveuM_StaCorr,FluorV,FluorQ,EstChl_CruiseCorr,EstChl_StaCorr,ISUSV,ISUSQ,EstNO3_CruiseCorr,EstNO3_StaCorr,SigThetaTS1,SigThetaTS1Q,SigThetaTS2,SigThetaTS2Q,BAT,XMiss,TransQ,pH,pHQ,SPAR,SPARQ,PAR,PARQ,PoT1,PoT2,DynHt,SVA,OxSat1,OxSat2,BTL_Depth,BTL_Temp,SaltB,OxB,OxBuM,Chl-a,Phaeo,NO3,NO2,NH4,PO4,SIL
CalCOFI,2101RL,041,,2101_041d,24-Jan-2021 17:58:06,24-Jan-2021 09:58:06,33.74414,-120.40946,083.3 055.0,083.3,055.0,2.000,2.014,,13.4345,,13.4358,,13.4352,33.3644,,33.3702,33.3614,,33.3634,33.3668,5.6188,,5.8805,5.9890,5.5204,,5.8612,5.9372,5.9631,244.807,256.5242,261.3234,240.520,272.6816,259.0647,260.1941,0.1096,,0.6499,0.7572, ,, , ,25.0392,,25.0366,,0.8904,80.0430,,,,1.4362E+03,,3.3004E+01,,13.4342,13.4355,0.0005,291.099,94.674,93.016,,,,,,,,,,,,
CalCOFI,2101RL,041,,2101_041d,24-Jan-2021 17:58:08,24-Jan-2021 09:58:08,33.74414,-120.40946,083.3 055.0,083.3,055.0,3.000,3.021,,13.4342,,13.4341,,13.4342,33.3643,,33.3701,33.3615,,33.3635,33.3668,5.5791,,5.8390,5.9466,5.5262,,5.8674,5.9435,5.9451,243.077,254.7132,259.4730,240.773,270.7578,259.3386,259.4058,0.0998,,0.5696,0.6802, ,, , ,25.0392,,25.0370,,0.8932,79.9883,,,,1.3887E+03,,2.0977E+01,,13.4338,13.4337,0.0034,291.127,94.004,93.111,3,,33.3368,5.965,260.24,0.052,0.073,,,,,
CalCOFI,2101RL,041,,2101_041d,24-Jan-2021 17:58:18,24-Jan-2021 09:58:18,33.74414,-120.40945,083.3 055.0,083.3,055.0,4.000,4.029,,13.4370,,13.4381,,13.4376,33.3645,,33.3703,33.3618,,33.3638,33.3671,5.6099,,5.8712,5.9795,5.5315,,5.8730,5.9492,5.9644,244.420,256.1191,260.9095,241.003,272.2513,259.5877,260.2486,0.1016,,0.5843,0.6944, ,, , ,25.0388,,25.0365,,0.8904,80.0430,,,,1.2283E+03,,1.4779E+01,,13.4364,13.4376,0.0122,291.196,94.529,93.208,,,,,,,,,,,,
CalCOFI,2101RL,041,,2101_041d,24-Jan-2021 17:58:23,24-Jan-2021 09:58:23,33.74414,-120.40944,083.3 055.0,083.3,055.0,5.000,5.036,,13.4388,,13.4392,,13.4390,33.3647,,33.3705,33.3618,,33.3638,33.3672,5.6250,,5.8870,5.9956,5.5409,,5.8830,5.9594,5.9775,245.078,256.8079,261.6133,241.412,272.9830,260.0306,260.8220,0.1081,,0.6376,0.7454, ,, , ,25.0386,,25.0363,,0.8921,80.0096,,,,1.1554E+03,,1.2576E+01,,13.4381,13.4385,0.0186,291.240,94.787,93.368,,,,,,,,,,,,
CalCOFI,2101RL,041,,2101_041d,24-Jan-2021 17:58:24,24-Jan-2021 09:58:24,33.74414,-120.40944,083.3 055.0,083.3,055.0,6.000,6.043,,13.4408,,13.4403,,13.4406,33.3646,,33.3704,33.3619,,33.3639,33.3672,5.6162,,5.8778,5.9862,5.5458,,5.8882,5.9647,5.9755,244.693,256.4048,261.2015,241.625,272.5549,260.2613,260.7314,0.1019,,0.5868,0.6967, ,, , ,25.0382,,25.0362,,0.8934,79.9833,,,,1.1433E+03,,9.2255E+00,,13.4399,13.4395,0.0216,291.305,94.642,93.453,,,,,,,,,,,,
CalCOFI,2101RL,041,,2101_041d,24-Jan-2021 17:58:26,24-Jan-2021 09:58:26,33.74414,-120.40945,083.3 055.0,083.3,055.0,7.000,7.050,,13.4354,,13.4346,,13.4350,33.3647,,33.3705,33.3619,,33.3639,33.3672,5.6052,,5.8663,5.9745,5.5353,,5.8770,5.9533,5.9639,244.213,255.9024,260.6881,241.168,272.0211,259.7664,260.2273,0.1064,,0.6237,0.7320, ,, , ,25.0393,,25.0373,,0.8903,80.0450,,,,1.1574E+03,,8.1604E+00,,13.4344,13.4337,0.0245,291.223,94.446,93.265,,,,,,,,,,,,
CalCOFI,2101RL,041,,2101_041d,24-Jan-2021 17:58:28,24-Jan-2021 09:58:28,33.74414,-120.40946,083.3 055.0,083.3,055.0,8.000,8.057,,13.4370,,13.4387,,13.4379,33.3646,,33.3704,33.3618,,33.3638,33.3671,5.6090,,5.8703,5.9785,5.5335,,5.8751,5.9514,5.9650,244.380,256.0772,260.8667,241.089,272.2068,259.6808,260.2738,0.1047,,0.6097,0.7187, ,, , ,25.0390,,25.0365,,0.8887,80.0768,,,,1.1473E+03,,7.6184E+00,,13.4359,13.4376,0.0275,291.285,94.514,93.242,,,,,,,,,,,,
CalCOFI,2101RL,041,,2101_041d,24-Jan-2021 17:58:29,24-Jan-2021 09:58:29,33.74414,-120.40945,083.3 055.0,083.3,055.0,9.000,9.065,,13.4371,,13.4380,,13.4376,33.3645,,33.3703,33.3618,,33.3638,33.3671,5.6072,,5.8684,5.9766,5.5410,,5.8831,5.9595,5.9681,244.303,255.9966,260.7843,241.415,272.1212,260.0338,260.4091,0.1049,,0.6114,0.7203, ,, , ,25.0389,,25.0366,,0.8883,80.0859,,,,1.1250E+03,,6.1824E+00,,13.4359,13.4368,0.0304,291.318,94.484,93.367,,,,,,,,,,,,
CalCOFI,2101RL,041,,2101_041d,24-Jan-2021 17:58:30,24-Jan-2021 09:58:30,33.74414,-120.40944,083.3 055.0,083.3,055.0,10.000,10.072,,13.4368,,13.4370,,13.4369,33.3646,,33.3704,33.3618,,33.3638,33.3671,5.5956,,5.8563,5.9642,5.5350,,5.8767,5.9530,5.9586,243.797,255.4669,260.2431,241.155,271.5585,259.7523,259.9977,0.1111,,0.6622,0.7689, ,, , ,25.0391,,25.0368,,0.8879,80.0938,,,,1.1291E+03,,5.3005E+00,,13.4354,13.4356,0.0333,291.331,94.288,93.264,10,,33.3378,5.951,259.64,1.075,0.311,,,,,
CalCOFI,2101RL,041,,2101_041d,24-Jan-2021 17:58:33,24-Jan-2021 09:58:33,33.74414,-120.40944,083.3 055.0,083.3,055.0,11.000,11.079,,13.4298,,13.4282,,13.4290,33.3638,,33.3696,33.3612,,33.3632,33.3664,5.5829,,5.8430,5.9507,5.5520,,5.8948,5.9714,5.9611,243.243,254.8870,259.6505,241.897,270.9424,260.5558,260.1032,0.1187,,0.7244,0.8286, ,, , ,25.0399,,25.0381,,0.8875,80.1024,,,,1.1488E+03,,4.7615E+00,,13.4282,13.4267,0.0363,291.283,94.060,93.534,,,,,,,,,,,,
CalCOFI,2101RL,041,,2101_041d,24-Jan-2021 17:58:34,24-Jan-2021 09:58:34,33.74414,-120.40944,083.3 055.0,083.3,055.0,12.000,12.086,,13.4236,,13.4244,,13.4240,33.3642,,33.3700,33.3613,,33.3633,33.3667,5.6094,,5.8707,5.9790,5.5445,,5.8868,5.9633,5.9712,244.394,256.0918,260.8817,241.567,272.2224,260.1985,260.5401,0.1668,,1.1186,1.2062, ,, , ,25.0415,,25.0391,,0.8893,80.0653,,,,1.1275E+03,,3.9046E+00,,13.4220,13.4227,0.0392,291.158,94.493,93.400,,,,,,,,,,,,
CalCOFI,2101RL,041,,2101_041d,24-Jan-2021 17:58:35,24-Jan-2021 09:58:35,33.74414,-120.40944,083.3 055.0,083.3,055.0,13.000,13.094,,13.4234,,13.4233,,13.4234,33.3641,,33.3699,33.3613,,33.3633,33.3666,5.6044,,5.8655,5.9736,5.5447,,5.8870,5.9635,5.9686,244.178,255.8657,260.6506,241.576,271.9822,260.2082,260.4294,0.1584,,1.0497,1.1402, ,, , ,25.0414,,25.0393,,0.8891,80.0703,,,,1.1048E+03,,3.3723E+00,,13.4216,13.4215,0.0421,291.187,94.409,93.401,,,,,,,,,,,,
CalCOFI,2101RL,041,,2101_041d,24-Jan-2021 17:58:36,24-Jan-2021 09:58:36,33.74414,-120.40944,083.3 055.0,083.3,055.0,14.000,14.101,,13.4232,,13.4233,,13.4233,33.3641,,33.3699,33.3614,,33.3634,33.3667,5.6010,,5.8619,5.9700,5.5482,,5.8907,5.9673,5.9687,244.029,255.7098,260.4913,241.729,271.8165,260.3739,260.4326,0.1653,,1.1063,1.1944, ,, , ,25.0415,,25.0394,,0.8886,80.0794,,,,1.0916E+03,,2.9903E+00,,13.4212,13.4214,0.0451,291.209,94.351,93.460,,,,,,,,,,,,
CalCOFI,2101RL,041,,2101_041d,24-Jan-2021 17:58:39,24-Jan-2021 09:58:39,33.74414,-120.40943,083.3 055.0,083.3,055.0,15.000,15.108,,13.4227,,13.4229,,13.4228,33.3641,,33.3699,33.3612,,33.3632,33.3666,5.5982,,5.8590,5.9670,5.5456,,5.8880,5.9644,5.9657,243.908,255.5831,260.3618,241.617,271.6819,260.2526,260.3072,0.1744,,1.1809,1.2658, ,, , ,25.0416,,25.0394,,0.8870,80.1118,,,,1.1193E+03,,2.8386E+00,,13.4206,13.4208,0.0481,291.223,94.303,93.416,,,,,,,,,,,,
CalCOFI,2101RL,041,,2101_041d,24-Jan-2021 17:58:44,24-Jan-2021 09:58:44,33.74414,-120.40942,083.3 055.0,083.3,055.0,16.000,16.115,,13.4222,,13.4221,,13.4222,33.3640,,33.3698,33.3613,,33.3633,33.3666,5.5980,,5.8588,5.9668,5.5340,,5.8757,5.9519,5.9594,243.899,255.5737,260.3522,241.112,271.6719,259.7057,260.0290,0.1728,,1.1677,1.2533, ,, , ,25.0418,,25.0397,,0.8871,80.1098,,,,1.0997E+03,,2.4305E+00,,13.4199,13.4198,0.0511,291.241,94.299,93.219,,,,,,,,,,,,
CalCOFI,2101RL,041,,2101_041d,24-Jan-2021 17:58:47,24-Jan-2021 09:58:47,33.74414,-120.40942,083.3 055.0,083.3,055.0,17.000,17.122,,13.4252,,13.4261,,13.4257,33.3642,,33.3700,33.3615,,33.3635,33.3668,5.5979,,5.8587,5.9667,5.5377,,5.8796,5.9559,5.9613,243.895,255.5695,260.3479,241.274,271.6675,259.8812,260.1146,0.1749,,1.1849,1.2698, ,, , ,25.0413,,25.0390,,0.8860,80.1321,,,,1.1062E+03,,2.1397E+00,,13.4228,13.4237,0.0540,291.310,94.303,93.290,,,,,,,,,,,,
CalCOFI,2101RL,041,,2101_041d,24-Jan-2021 17:58:52,24-Jan-2021 09:58:52,33.74415,-120.40942,083.3 055.0,083.3,055.0,18.000,18.130,,13.4224,,13.4232,,13.4228,33.3642,,33.3700,33.3614,,33.3634,33.3667,5.6041,,5.8652,5.9733,5.5465,,5.8889,5.9654,5.9694,244.166,255.8532,260.6378,241.655,271.9688,260.2937,260.4658,0.2004,,1.3939,1.4699, ,, , ,25.0419,,25.0396,,0.8919,80.0131,,,,1.1026E+03,,1.8483E+00,,13.4199,13.4207,0.0569,291.282,94.403,93.432,,,,,,,,,,,,
CalCOFI,2101RL,041,,2101_041d,24-Jan-2021 17:58:54,24-Jan-2021 09:58:54,33.74416,-120.40942,083.3 055.0,083.3,055.0,19.000,19.137,,13.4223,,13.4224,,13.4224,33.3644,,33.3702,33.3615,,33.3635,33.3669,5.5946,,5.8552,5.9632,5.5531,,5.8959,5.9726,5.9679,243.753,255.4208,260.1960,241.941,271.5096,260.6035,260.3998,0.1678,,1.1268,1.2140, ,, , ,25.0420,,25.0398,,0.8867,80.1174,,,,1.0969E+03,,1.6720E+00,,13.4197,13.4198,0.0598,291.295,94.243,93.541,19,,33.3378,5.866,255.90,1.260,0.192,,,,,
CalCOFI,2101RL,041,,2101_041d,24-Jan-2021 17:58:55,24-Jan-2021 09:58:55,33.74416,-120.40942,083.3 055.0,083.3,055.0,20.000,20.144,,13.4256,,13.4259,,13.4258,33.3642,,33.3700,33.3613,,33.3633,33.3667,5.5870,,5.8473,5.9550,5.5441,,5.8864,5.9628,5.9589,243.419,255.0712,259.8388,241.550,271.1381,260.1800,260.0094,0.1782,,1.2120,1.2957, ,, , ,25.0413,,25.0390,,0.8867,80.1166,,,,1.1027E+03,,1.5217E+00,,13.4229,13.4232,0.0628,291.399,94.120,93.396,,,,,,,,,,,,
CalCOFI,2101RL,041,,2101_041d,24-Jan-2021 17:58:56,24-Jan-2021 09:58:56,33.74414,-120.40942,083.3 055.0,083.3,055.0,21.000,21.152,,13.4221,,13.4230,,13.4226,33.3645,,33.3703,33.3615,,33.3635,33.3669,5.5984,,5.8592,5.9672,5.5347,,5.8764,5.9527,5.9600,243.916,255.5915,260.3704,241.141,271.6908,259.7371,260.0538,0.1699,,1.1440,1.2305, ,, , ,25.0422,,25.0398,,0.8877,80.0983,,,,1.1121E+03,,1.3626E+00,,13.4191,13.4201,0.0657,291.332,94.305,93.232,,,,,,,,,,,,
CalCOFI,2101RL,041,,2101_041d,24-Jan-2021 17:59:00,24-Jan-2021 09:59:00,33.74415,-120.40943,083.3 055.0,083.3,055.0,22.000,22.159,,13.4240,,13.4251,,13.4246,33.3642,,33.3700,33.3616,,33.3636,33.3668,5.6032,,5.8642,5.9723,5.5330,,5.8746,5.9508,5.9616,244.128,255.8134,260.5972,241.070,271.9266,259.6602,260.1287,0.1760,,1.1940,1.2784, ,, , ,25.0417,,25.0394,,0.8868,80.1153,,,,1.1160E+03,,1.1651E+00,,13.4210,13.4221,0.0692,291.412,94.391,93.209,,,,,,,,,,,,
CalCOFI,2101RL,041,,2101_041d,24-Jan-2021 17:59:02,24-Jan-2021 09:59:02,33.74416,-120.40945,083.3 055.0,083.3,055.0,23.000,23.166,,13.4244,,13.4244,,13.4244,33.3643,,33.3701,33.3616,,33.3636,33.3669,5.6025,,5.8635,5.9716,5.5350,,5.8767,5.9530,5.9623,244.093,255.7768,260.5597,241.153,271.8876,259.7501,260.1549,0.1755,,1.1899,1.2745, ,, , ,25.0417,,25.0396,,0.8881,80.0896,,,,1.0918E+03,,1.0530E+00,,13.4212,13.4212,0.0723,291.438,94.378,93.240,,,,,,,,,,,,
CalCOFI,2101RL,041,,2101_041d,24-Jan-2021 17:59:04,24-Jan-2021 09:59:04,33.74416,-120.40946,083.3 055.0,083.3,055.0,24.000,24.173,,13.4296,,13.4297,,13.4297,33.3645,,33.3703,33.3615,,33.3635,33.3669,5.5980,,5.8588,5.9668,5.5393,,5.8813,5.9576,5.9622,243.901,255.5758,260.3544,241.340,271.6741,259.9526,260.1535,0.1816,,1.2398,1.3223, ,, , ,25.0408,,25.0385,,0.8879,80.0935,,,,1.1078E+03,,9.4330E-01,,13.4263,13.4263,0.0752,291.555,94.314,93.322,,,,,,,,,,,,
CalCOFI,2101RL,041,,2101_041d,24-Jan-2021 17:59:06,24-Jan-2021 09:59:06,33.74414,-120.40946,083.3 055.0,083.3,055.0,25.000,25.181,,13.4305,,13.4309,,13.4307,33.3644,,33.3702,33.3616,,33.3636,33.3669,5.5835,,5.8436,5.9513,5.5169,,5.8575,5.9334,5.9424,243.269,254.9142,259.6784,240.365,270.9713,258.8968,259.2876,0.1882,,1.2939,1.3742, ,, , ,25.0406,,25.0384,,0.8881,80.0898,,,,1.1193E+03,,8.5210E-01,,13.4270,13.4274,0.0781,291.602,94.071,92.947,,,,,,,,,,,,
CalCOFI,2101RL,041,,2101_041d,24-Jan-2021 17:59:07,24-Jan-2021 09:59:07,33.74414,-120.40946,083.3 055.0,083.3,055.0,26.000,26.188,,13.4176,,13.4181,,13.4179,33.3640,,33.3698,33.3612,,33.3632,33.3665,5.5885,,5.8488,5.9566,5.5221,,5.8630,5.9390,5.9478,243.486,255.1413,259.9105,240.591,271.2127,259.1415,259.5260,0.1815,,1.2390,1.3216, ,, , ,25.0429,,25.0406,,0.8872,80.1079,,,,1.0996E+03,,7.4849E-01,,13.4140,13.4145,0.0811,291.410,94.130,93.010,,,,,,,,,,,,
CalCOFI,2101RL,041,,2101_041d,24-Jan-2021 17:59:10,24-Jan-2021 09:59:10,33.74414,-120.40946,083.3 055.0,083.3,055.0,27.000,27.195,,13.4145,,13.4147,,13.4146,33.3645,,33.3703,33.3619,,33.3639,33.3671,5.5284,,5.7859,5.8924,5.4845,,5.8231,5.8984,5.8954,240.867,252.3998,257.1091,238.954,268.3003,257.3688,257.2390,0.1796,,1.2235,1.3066, ,, , ,25.0440,,25.0419,,0.8853,80.1460,,,,1.0935E+03,,6.4149E-01,,13.4107,13.4109,0.0840,291.335,93.112,92.371,,,,,,,,,,,,
CalCOFI,2101RL,041,,2101_041d,24-Jan-2021 17:59:13,24-Jan-2021 09:59:13,33.74414,-120.40948,083.3 055.0,083.3,055.0,28.000,28.202,,13.4137,,13.4144,,13.4141,33.3666,,33.3724,33.3642,,33.3662,33.3693,5.2455,,5.4898,5.5902,5.2389,,5.5622,5.6327,5.6115,228.540,239.4959,243.9240,228.252,254.5925,245.7797,244.8519,0.1814,,1.2382,1.3208, ,, , ,25.0458,,25.0438,,0.8790,80.2726,,,,1.0991E+03,,5.6561E-01,,13.4098,13.4105,0.0869,291.189,88.347,88.236,,,,,,,,,,,,
CalCOFI,2101RL,041,,2101_041d,24-Jan-2021 17:59:13,24-Jan-2021 09:59:13,33.74414,-120.40948,083.3 055.0,083.3,055.0,29.000,29.210,,13.3963,,13.3894,,13.3929,33.4022,,33.4080,33.4031,,33.4051,33.4066,5.2430,,5.4872,5.5875,5.1799,,5.4996,5.5689,5.5782,228.424,239.3744,243.7999,225.675,254.4635,242.9891,243.3945,0.1440,,0.9318,1.0272, ,, , ,25.0768,,25.0789,,0.8384,81.0921,,,,1.0885E+03,,5.0682E-01,,13.3923,13.3855,0.0899,288.262,88.293,87.219,,,,,,,,,,,,
CalCOFI,2101RL,041,,2101_041d,24-Jan-2021 17:59:16,24-Jan-2021 09:59:16,33.74414,-120.40948,083.3 055.0,083.3,055.0,30.000,30.217,,13.2002,,13.1755,,13.1879,33.4200,,33.4258,33.4216,,33.4236,33.4247,5.2287,,5.4723,5.5723,5.1615,,5.4800,5.5490,5.5607,227.789,238.7097,243.1207,224.859,253.7573,242.1054,242.6131,0.0934,,0.5171,0.6300, ,, , ,25.1300,,25.1362,,0.8110,81.6504,,,,1.1106E+03,,4.4890E-01,,13.1961,13.1714,0.0929,283.220,87.708,86.537,,,,,,,,,,,,
CalCOFI,2101RL,041,,2101_041d,24-Jan-2021 17:59:18,24-Jan-2021 09:59:18,33.74415,-120.40948,083.3 055.0,083.3,055.0,31.000,31.224,,13.1753,,13.1464,,13.1609,33.4228,,33.4286,33.4237,,33.4257,33.4272,5.1679,,5.4086,5.5073,5.1258,,5.4421,5.5104,5.5089,225.141,235.9378,240.2884,223.304,250.8127,240.4215,240.3550,0.0825,,0.4278,0.5444, ,, , ,25.1371,,25.1436,,0.7864,82.1523,,,,1.1181E+03,,3.8398E-01,,13.1711,13.1422,0.0958,282.568,86.646,85.889,,,,,,,,,,,,
CalCOFI,2101RL,041,,2101_041d,24-Jan-2021 17:59:19,24-Jan-2021 09:59:19,33.74416,-120.40948,083.3 055.0,083.3,055.0,32.000,32.232,,13.1222,,13.1184,,13.1203,33.4274,,33.4332,33.4245,,33.4265,33.4299,5.1779,,5.4191,5.5180,5.1268,,5.4432,5.5115,5.5148,225.571,236.3879,240.7483,223.344,251.2909,240.4648,240.6066,0.0723,,0.3442,0.4644, ,, , ,25.1513,,25.1499,,0.7592,82.7127,,,,1.1028E+03,,3.2533E-01,,13.1178,13.1141,0.0987,281.241,86.720,85.856,,,,,,,,,,,,
CalCOFI,2101RL,041,,2101_041d,24-Jan-2021 17:59:22,24-Jan-2021 09:59:22,33.74416,-120.40948,083.3 055.0,083.3,055.0,33.000,33.239,,13.0782,,13.0824,,13.0803,33.4248,,33.4306,33.4225,,33.4245,33.4276,5.1206,,5.3591,5.4568,5.0814,,5.3950,5.4624,5.4596,223.075,233.7751,238.0785,221.366,248.5153,238.3229,238.2007,0.0732,,0.3516,0.4714, ,, , ,25.1581,,25.1555,,0.7580,82.7374,,,,1.1116E+03,,2.8016E-01,,13.0737,13.0779,0.1015,280.621,85.682,85.032,,,,,,,,,,,,
CalCOFI,2101RL,041,,2101_041d,24-Jan-2021 17:59:24,24-Jan-2021 09:59:24,33.74416,-120.40948,083.3 055.0,083.3,055.0,34.000,34.246,,12.9780,,12.9691,,12.9736,33.4135,,33.4193,33.4111,,33.4131,33.4162,5.0308,,5.2651,5.3608,4.9895,,5.2973,5.3630,5.3619,219.160,229.6769,233.8910,217.361,244.1618,233.9859,233.9385,0.0743,,0.3606,0.4801, ,, , ,25.1692,,25.1691,,0.7536,82.8272,,,,1.1349E+03,,2.6269E-01,,12.9734,12.9645,0.1043,279.587,84.000,83.294,,,,,,,,,,,,
CalCOFI,2101RL,041,,2101_041d,24-Jan-2021 17:59:26,24-Jan-2021 09:59:26,33.74418,-120.40948,083.3 055.0,083.3,055.0,35.000,35.254,,12.8222,,12.8204,,12.8213,33.3997,,33.4055,33.3973,,33.3993,33.4024,5.0261,,5.2602,5.3558,4.9760,,5.2830,5.3484,5.3521,218.951,229.4581,233.6674,216.769,243.9293,233.3448,233.5061,0.0706,,0.3303,0.4510, ,, , ,25.1893,,25.1877,,0.7488,82.9291,,,,1.1422E+03,,2.3364E-01,,12.8175,12.8157,0.1071,277.694,83.644,82.806,,,,,,,,,,,,
CalCOFI,2101RL,041,,2101_041d,24-Jan-2021 17:59:28,24-Jan-2021 09:59:28,33.74418,-120.40947,083.3 055.0,083.3,055.0,36.000,36.261,,12.7384,,12.7386,,12.7385,33.3940,,33.3998,33.3915,,33.3935,33.3967,5.0142,,5.2478,5.3431,4.9566,,5.2624,5.3274,5.3353,218.430,228.9127,233.1102,215.922,243.3500,232.4276,232.7689,0.0668,,0.2992,0.4212, ,, , ,25.2012,,25.1993,,0.7465,82.9763,,,,1.1814E+03,,1.9962E-01,,12.7336,12.7337,0.1099,276.580,83.299,82.341,,,,,,,,,,,,
CalCOFI,2101RL,041,,2101_041d,24-Jan-2021 17:59:30,24-Jan-2021 09:59:30,33.74418,-120.40946,083.3 055.0,083.3,055.0,37.000,37.268,,12.6925,,12.6927,,12.6926,33.3885,,33.3943,33.3859,,33.3879,33.3911,4.9466,,5.1770,5.2709,4.8975,,5.1996,5.2635,5.2672,215.482,225.8268,229.9569,213.347,240.0718,229.6391,229.7980,0.0680,,0.3090,0.4306, ,, , ,25.2059,,25.2039,,0.7461,82.9834,,,,1.3033E+03,,1.6408E-01,,12.6875,12.6877,0.1127,276.153,82.094,81.279,,,,,,,,,,,,
CalCOFI,2101RL,041,,2101_041d,24-Jan-2021 17:59:33,24-Jan-2021 09:59:33,33.74418,-120.40948,083.3 055.0,083.3,055.0,38.000,38.276,,12.6174,,12.6154,,12.6164,33.3833,,33.3891,33.3806,,33.3826,33.3859,4.6395,,4.8556,4.9428,4.6969,,4.9866,5.0465,4.9947,202.102,211.8206,215.6455,204.603,225.1930,220.1703,217.9079,0.0652,,0.2861,0.4086, ,, , ,25.2166,,25.2148,,0.7444,83.0179,,,,1.3818E+03,,1.4232E-01,,12.6124,12.6104,0.1155,275.164,76.874,77.821,,,,,,,,,,,,
CalCOFI,2101RL,041,,2101_041d,24-Jan-2021 17:59:34,24-Jan-2021 09:59:34,33.74418,-120.40948,083.3 055.0,083.3,055.0,39.000,39.283,,12.4515,,12.4363,,12.4439,33.3679,,33.3737,33.3679,,33.3699,33.3718,4.5682,,4.7810,4.8666,4.5851,,4.8678,4.9256,4.8961,198.996,208.5692,212.3232,199.730,221.7391,214.8933,213.6083,0.0619,,0.2590,0.3827, ,, , ,25.2366,,25.2396,,0.7438,83.0313,,,,1.3413E+03,,1.2546E-01,,12.4464,12.4312,0.1182,273.272,75.426,75.681,,,,,,,,,,,,
CalCOFI,2101RL,041,,2101_041d,24-Jan-2021 17:59:35,24-Jan-2021 09:59:35,33.74418,-120.40948,083.3 055.0,083.3,055.0,40.000,40.291,,12.1063,,12.1021,,12.1042,33.3718,,33.3776,33.3699,,33.3719,33.3748,4.5855,,4.7991,4.8851,4.5676,,4.8492,4.9067,4.8959,199.733,209.3407,213.1116,198.955,222.5586,214.0541,213.5829,0.0546,,0.1992,0.3254, ,, , ,25.3056,,25.3049,,0.7392,83.1271,,,,1.2894E+03,,1.1581E-01,,12.1012,12.0969,0.1210,266.713,75.168,74.868,,,,,,,,,,,,
CalCOFI,2101RL,041,,2101_041d,24-Jan-2021 17:59:37,24-Jan-2021 09:59:37,33.74418,-120.40948,083.3 055.0,083.3,055.0,41.000,41.298,,12.0046,,12.0033,,12.0040,33.3761,,33.3819,33.3738,,33.3758,33.3789,4.6042,,4.8187,4.9051,4.5601,,4.8413,4.8986,4.9019,200.546,210.1918,213.9812,198.623,223.4627,213.6945,213.8379,0.0543,,0.1967,0.3231, ,, , ,25.3282,,25.3266,,0.7392,83.1269,,,,1.2268E+03,,9.5028E-02,,11.9994,11.9981,0.1236,264.581,75.317,74.592,,,,,,,,,,,,
CalCOFI,2101RL,041,,2101_041d,24-Jan-2021 17:59:40,24-Jan-2021 09:59:40,33.74418,-120.40946,083.3 055.0,083.3,055.0,42.000,42.305,,11.9478,,11.9471,,11.9475,33.3808,,33.3866,33.3769,,33.3789,33.3828,4.5996,,4.8138,4.9002,4.5491,,4.8296,4.8867,4.8935,200.341,209.9772,213.7619,198.140,223.2347,213.1715,213.4667,0.0542,,0.1959,0.3223, ,, , ,25.3424,,25.3396,,0.7373,83.1655,,,,1.1710E+03,,4.5011E-02,,11.9424,11.9417,0.1263,263.243,75.153,74.325,,,,,,,,,,,,
CalCOFI,2101RL,041,,2101_041d,24-Jan-2021 17:59:42,24-Jan-2021 09:59:42,33.74418,-120.40946,083.3 055.0,083.3,055.0,43.000,43.313,,11.9250,,11.9248,,11.9249,33.3811,,33.3869,33.3785,,33.3805,33.3837,4.5614,,4.7739,4.8594,4.5260,,4.8051,4.8617,4.8606,198.675,208.2332,211.9799,197.137,221.3821,212.0854,212.0327,0.0538,,0.1926,0.3192, ,, , ,25.3470,,25.3450,,0.7359,83.1957,,,,1.1334E+03,,4.8236E-03,,11.9196,11.9193,0.1289,262.832,74.493,73.915,,,,,,,,,,,,
CalCOFI,2101RL,041,,2101_041d,24-Jan-2021 17:59:44,24-Jan-2021 09:59:44,33.74418,-120.40946,083.3 055.0,083.3,055.0,44.000,44.320,,11.8768,,11.8746,,11.8757,33.3841,,33.3899,33.3819,,33.3839,33.3869,4.5076,,4.7176,4.8019,4.4695,,4.7451,4.8006,4.8013,196.332,205.7805,209.4738,194.673,218.7767,209.4171,209.4455,0.0540,,0.1943,0.3207, ,, , ,25.3583,,25.3571,,0.7356,83.2018,,,,1.1327E+03,,1.1718E-04,,11.8712,11.8690,0.1316,261.778,73.543,72.916,,,,,,,,,,,,
CalCOFI,2101RL,041,,2101_041d,24-Jan-2021 17:59:46,24-Jan-2021 09:59:46,33.74420,-120.40946,083.3 055.0,083.3,055.0,45.000,45.327,,11.7746,,11.7739,,11.7743,33.3901,,33.3959,33.3877,,33.3897,33.3928,4.3907,,4.5952,4.6770,4.3980,,4.6691,4.7232,4.7001,191.236,200.4460,204.0230,191.555,213.1098,206.0406,205.0318,0.0530,,0.1861,0.3129, ,, , ,25.3821,,25.3803,,0.7338,83.2397,,,,1.1301E+03,,1.0000E-12,,11.7689,11.7682,0.1342,259.533,71.484,71.601,,,,,,,,,,,,
CalCOFI,2101RL,041,,2101_041d,24-Jan-2021 17:59:48,24-Jan-2021 09:59:48,33.74419,-120.40946,083.3 055.0,083.3,055.0,46.000,46.335,,11.6488,,11.6446,,11.6467,33.3958,,33.4016,33.3947,,33.3967,33.3992,4.3516,,4.5543,4.6353,4.3369,,4.6042,4.6572,4.6463,189.527,198.6571,202.1951,188.886,211.2094,203.1504,202.6728,0.0511,,0.1705,0.2980, ,, , ,25.4098,,25.4097,,0.7326,83.2644,,,,1.1092E+03,,1.0000E-12,,11.6430,11.6388,0.1368,256.913,70.661,70.416,,,,,,,,,,,,
CalCOFI,2101RL,041,,2101_041d,24-Jan-2021 17:59:50,24-Jan-2021 09:59:50,33.74418,-120.40946,083.3 055.0,083.3,055.0,47.000,47.342,,11.4106,,11.4070,,11.4088,33.4026,,33.4084,33.4008,,33.4028,33.4056,4.3662,,4.5696,4.6509,4.3221,,4.5885,4.6412,4.6461,190.154,199.3134,202.8657,188.233,211.9066,202.4433,202.6545,0.0486,,0.1500,0.2783, ,, , ,25.4588,,25.4580,,0.7314,83.2895,,,,1.1023E+03,,1.0000E-12,,11.4048,11.4011,0.1394,252.258,70.545,69.826,,,,,,,,,,,,
CalCOFI,2101RL,041,,2101_041d,24-Jan-2021 17:59:53,24-Jan-2021 09:59:53,33.74418,-120.40944,083.3 055.0,083.3,055.0,48.000,48.349,,11.3389,,11.3108,,11.3249,33.4053,,33.4111,33.4009,,33.4029,33.4070,4.2178,,4.4142,4.4923,4.2161,,4.4759,4.5265,4.5094,183.686,192.5427,195.9474,183.613,204.7141,197.4403,196.6939,0.0475,,0.1410,0.2697, ,, , ,25.4739,,25.4756,,0.7297,83.3237,,,,1.1035E+03,,1.0000E-12,,11.3330,11.3048,0.1419,250.835,68.044,67.974,,,,,,,,,,,,
CalCOFI,2101RL,041,,2101_041d,24-Jan-2021 17:59:54,24-Jan-2021 09:59:54,33.74418,-120.40944,083.3 055.0,083.3,055.0,49.000,49.357,,11.1928,,11.1905,,11.1917,33.4170,,33.4228,33.4154,,33.4174,33.4201,4.2121,,4.4083,4.4862,4.1822,,4.4399,4.4898,4.4880,183.434,192.2789,195.6779,182.129,204.4339,195.8333,195.7556,0.0461,,0.1295,0.2587, ,, , ,25.5095,,25.5087,,0.7292,83.3342,,,,1.0857E+03,,1.0000E-12,,11.1868,11.1845,0.1444,247.468,67.747,67.261,,,,,,,,,,,,
CalCOFI,2101RL,041,,2101_041d,24-Jan-2021 17:59:56,24-Jan-2021 09:59:56,33.74420,-120.40946,083.3 055.0,083.3,055.0,50.000,50.364,,11.1009,,11.1004,,11.1007,33.4290,,33.4348,33.4263,,33.4283,33.4316,4.2092,,4.4052,4.4831,4.1798,,4.4374,4.4872,4.4852,183.303,192.1418,195.5378,182.021,204.2882,195.7163,195.6271,0.0449,,0.1197,0.2493, ,, , ,25.5353,,25.5333,,0.7281,83.3583,,,,1.0762E+03,,1.0000E-12,,11.0948,11.0943,0.1469,245.022,67.573,67.098,50,,33.3691,4.739,206.75,1.162,0.297,,,,,
CalCOFI,2101RL,041,,2101_041d,24-Jan-2021 17:59:57,24-Jan-2021 09:59:57,33.74420,-120.40946,083.3 055.0,083.3,055.0,51.000,51.372,,11.0847,,11.0853,,11.0850,33.4310,,33.4368,33.4282,,33.4302,33.4335,4.2090,,4.4050,4.4829,4.1702,,4.4272,4.4769,4.4799,183.292,192.1303,195.5260,181.604,204.2760,195.2647,195.3954,0.0452,,0.1222,0.2516, ,, , ,25.5398,,25.5375,,0.7277,83.3669,,,,1.0663E+03,,1.0000E-12,,11.0785,11.0791,0.1494,244.623,67.547,66.924,,,,,,,,,,,,